Location: Spaichingen
(48.0400°N, 8.4300°E)
Time: 00:04:58
(UTC+02:00)

Tiangong 2 - Pass Details

Date: 27 May 2019
Orbit: 376 x 388 km, 42.8° (Epoch: 24 June)

Event Time Altitude Azimuth Distance (km) Brightness Sun altitude
Rises 22:22:50 0° 264° (W) 2,236 5.5 -9.7°
Reaches altitude 10° 22:25:11 10° 248° (WSW) 1,382 4.1 -10.0°
Maximum altitude 22:27:39 22° 196° (SSW) 891 2.6 -10.2°
Enters shadow 22:29:09 16° 157° (SSE) 1,096 2.8 -10.4°
